Notices

What's New in latest Release from April 7th, 2021:

- Updated Glossary, including Speed of Maximum Gust, and Total Hourly Precipitation

- Updated national and regional climate services offices contacts and prices information

- Addition of station inventory lists for 1981-2010, 1971-2000, and 1961-1990 Normals.

If you haven't already, please take our survey and provide feedback about our website: https://eccc.sondage-survey.ca/f/LanguageSelection.aspx?s=442ca660-fcf1-47c0-95a9-59707d6fd709

Hourly Data Report for December 13, 2020

FORT GOOD HOPE CS
NORTHWEST TERRITORIES
Current Station Operator: ECCC - MSC

66°14'32.044" N
128°38'39.081" W
81.70 m
2201450
71491
ZGH

Download Data

Hourly Data (December 2020)
Hourly Data Report for December 13, 2020
TIME
LST
Temp Definition
°C
Dew Point Definition
°C
Rel Hum Definition
%
Precip. Amount Definition
mm

Wind Dir Definition
10's deg

Wind Spd Definition
km/h
Visibility Definition
km
Stn Press Definition
kPa
Hmdx Definition


Wind Chill Definition


Weather Definition


00:00 -34.6 -38.1 71 0.0 20 2   102.45   -37 LegendNANA
01:00 -34.6 -38.2 70 0.0 19 4   102.44   -40 LegendNANA
02:00 -36.5 -40.1 69 0.0 20 5   102.46   -43 LegendNANA
03:00 -37.1 -40.8 69 0.0 21 6   102.49   -45 LegendNANA
04:00 -38.6 -42.4 67 0.0 18 5   102.50   -45 LegendNANA
05:00 -39.3 -43.1 67 0.0 18 6   102.51   -47 LegendNANA
06:00 -38.6 -42.4 68 0.0 20 10   102.50   -49 LegendNANA
07:00 -39.3 -43.1 67 0.0 21 3   102.50   -43 LegendNANA
08:00 -39.5 -43.3 67 0.0 19 5   102.49   -46 LegendNANA
09:00 -39.3 -43.0 67 0.0 21 5   102.51   -46 LegendNANA
10:00 -39.6 -43.4 67 0.0 21 6   102.52   -48 LegendNANA
11:00 -39.7 -43.5 67 0.0 19 6   102.53   -48 LegendNANA
12:00 -39.6 -43.5 67 0.0 19 6   102.55   -48 LegendNANA
13:00 -39.6 -43.4 67 0.0 20 4   102.53   -45 LegendNANA
14:00 -39.0 -42.9 67 0.0 21 6   102.52   -47 LegendNANA
15:00 -39.1 -42.9 67 0.0 21 5   102.51   -46 LegendNANA
16:00 -38.8 -42.5 67 0.0 19 8   102.47   -48 LegendNANA
17:00 -38.1 -41.9 68 0.0 21 7   102.48   -47 LegendNANA
18:00 -37.7 -41.4 68 0.0 21 9   102.45   -48 LegendNANA
19:00 -37.6 -41.3 68 0.0 22 7   102.44   -46 LegendNANA
20:00 -36.8 -40.4 69 0.0 23 8   102.39   -46 LegendNANA
21:00 -36.5 -40.2 69 0.0 22 6   102.35   -44 LegendNANA
22:00 -36.1 -39.8 69 0.0 23 7   102.30   -44 LegendNANA
23:00 -36.0 -39.6 69 0.0 21 7   102.29   -44 LegendNANA

Notes on Data Quality.

Legend

  • E = Estimated
  • M = Missing
  • NA = Not Available*
  • [empty] = Indicates an unobserved value
Date modified: